DELTA 1 DEB, 12647

Orbit data source: Space-Track

DELTA 1 DEB, 12647 is space debris in LEO originally from a launch on Thu, 29 Jul 1976 UTC launched from the Air Force Western Test Range (AFWTR). Debris objects in space refer to the collection of defunct objects orbiting the Earth. Examples of debris include non-operational satellites, rocket bodies, and fragments generated from explosions, collisions, or faulty payload assembly.

Loading next visibility...
Identifier
12647, 1976-077EA
Orbit
LEO
Country
Flag of USUS
Related business
Manufacturer
Unknown
Mission
Spacecraft
Bus & Motor
Unknown
Mass
Unknown
Launch date (UTC)
1976-07-29 (50 years ago)
Launch vehicle
Unknown
Launch site
Air Force Western Test Range (AFWTR)
Object type
Payload
Rocket body
Debris
Shape & HBR
Unknown shape, 0.1 m
Radar Cross Section
Small (<0.1 m²)

Expand to show TLE details & history
Last TLE update: 1 day ago

TLE from 1 day ago
0 DELTA 1 DEB
1 12647U 76077EA  26104.17791623  .00000460  00000-0  60459-2 0  9992
2 12647 100.6675 192.9184 0352554 339.4365  45.9421 11.86649847 80331
Epoch: 2026-04-14T04:16Z
TLE epoch observation values (Epoch: 2026-04-14T04:16:11.962Z)
Latitude
27.87878°
Longitude
-79.18001°
Altitude
1,550.623 km
Speed
7.178 km/s
True Right ascension
12h 28m 54s
True Declination
27° 45' 04"
Sunlit
Object was in full shadow at epoch
Visualization orbit readout
Latitude
Unknown
Longitude
Unknown
Altitude
Unknown
Speed
Unknown
Apparent Right ascension
Unknown
Apparent Declination
Unknown
Sunlit
N/A
Visualization observer readout
Local Sidereal Time
10:31:11
Azimuth
Unknown
Elevation
Unknown
Doppler factor
Unknown
Orbital elements
Apogee altitude
2,024.924 km
Perigee altitude
1,452.595 km
Semi-major axis
8,116.896 km
Eccentricity
0.03526
Inclination
100.6675°
RAAN
192.9184°
Arg. of periapsis
339.4365°
True anomaly
48.93567°
Mean anomaly
45.9421°
Eccentric anomaly
47.42971°
Mean motion
2.96796 °/min
Orbital period
121.3 mins
BSTAR
0.0060459
Loading maneuver chart data...
Computing Atmospheric mass density...
Loading historical data...
Loading historical data...
Loading historical data...
Loading historical data...
Loading historical data...
Loading historical data...
Loading historical data...

Documentation

Showing up to 5 results
|